Location: Fenile
(46.0500°N, 9.5500°E)
Time: 14:36:18
(UTC+00:00)

OBJECT-B - Pass Details

Date: 03 March 2021
Orbit: 414 x 427 km, 97.0° (Epoch: 11 April)

Event Time Altitude Azimuth Distance (km) Brightness Sun altitude
Exits shadow 19:38:15 25° 319° (NW) 888 2.9 -26.0°
Drops below altitude 10° 19:39:54 10° 335° (NNW) 1,514 4.1 -26.3°
Sets 19:41:58 0° 342° (NNW) 2,381 5.1 -26.6°
